START_TIME,STEP,MOV.,A46,t_acc.,A13,t_acc.,M47,t_acc.,A17,t_acc.,A28,t_acc.,M38,t_acc.
1979-08-03 03:00:24.270 ,0,0,,0,7.,4.8,0.,4.8,,0,0.,4.8,3.,4.8
1979-08-03 03:00:29.070 ,0,0,,0,3.,4.8,0.,4.8,,0,0.,4.8,0.,4.8
1979-08-03 03:00:33.870 ,0,0,,0,,0,,0,,0,,0,,0
1979-08-03 03:00:38.670 ,0,0,,0,0.,4.8,0.,4.8,,0,0.,4.8,1.,4.8
1979-08-03 03:00:43.470 ,0,0,,0,,0,,0,,0,,0,,0
1979-08-03 03:00:50.670 ,0,0,,0,,0,,0,,0,,0,,0
1979-08-03 03:00:55.470 ,0,0,,0,,0,,0,,0,,0,,0
1979-08-03 03:01:00.270 ,0,0,,0,1.,4.8,0.,4.8,,0,0.,4.8,1.,4.8
1979-08-03 03:01:05.070 ,0,0,,0,3.,4.8,0.,4.8,,0,0.,4.8,1.,4.8
1979-08-03 03:01:09.870 ,0,0,,0,,0,,0,,0,,0,,0
1979-08-03 03:01:12.270 ,0,0,,0,4.,4.8,0.,4.8,,0,0.,4.8,1.,4.8
1979-08-03 03:01:17.070 ,0,0,,0,,0,,0,,0,,0,,0
1979-08-03 03:01:21.870 ,0,0,,0,2.,4.8,0.,4.8,,0,0.,4.8,1.,4.8
1979-08-03 03:01:26.670 ,0,0,,0,0.,4.8,0.,4.8,,0,0.,4.8,1.,4.8
1979-08-03 03:01:31.470 ,0,0,,0,0.,4.8,0.,4.8,,0,0.,4.8,0.,4.8
1979-08-03 03:01:36.270 ,3,0,,0,0.,4.8,0.,4.8,,0,0.,4.8,0.,4.8
1979-08-03 03:01:41.070 ,3,0,,0,2.,4.8,0.,4.8,,0,0.,4.8,1.,4.8
1979-08-03 03:01:45.870 ,3,0,,0,0.,4.8,0.,4.8,,0,0.,4.8,0.,4.8
1979-08-03 03:01:50.670 ,3,0,,0,4.,4.8,0.,4.8,,0,0.,4.8,0.,4.8
1979-08-03 03:01:55.470 ,3,0,,0,2.,4.8,0.,4.8,,0,0.,4.8,0.,4.8
1979-08-03 03:02:00.270 ,0,0,,0,,0,,0,,0,,0,,0
1979-08-03 03:02:05.070 ,0,0,,0,4.,4.8,0.,4.8,,0,0.,4.8,0.,4.8
1979-08-03 03:02:09.870 ,0,0,,0,2.,4.8,0.,4.8,,0,0.,4.8,0.,4.8
1979-08-03 03:02:14.670 ,0,0,,0,0.,4.8,0.,4.8,,0,0.,4.8,1.,4.8
1979-08-03 03:02:19.470 ,0,0,,0,,0,,0,,0,,0,,0
1979-08-03 03:02:24.870 ,0,0,,0,0.,4.8,0.,4.8,,0,0.,4.8,0.,4.8
1979-08-03 03:02:29.670 ,0,0,,0,,0,,0,,0,,0,,0
1979-08-03 03:02:34.470 ,0,0,,0,0.,4.8,0.,4.8,,0,0.,4.8,0.,4.8
1979-08-03 03:02:39.270 ,0,0,,0,,0,,0,,0,,0,,0
1979-08-03 03:02:44.070 ,0,0,,0,,0,,0,,0,,0,,0
1979-08-03 03:02:48.270 ,0,0,,0,,0,,0,,0,,0,,0
1979-08-03 03:02:53.070 ,0,0,,0,,0,,0,,0,,0,,0
1979-08-03 03:02:57.870 ,0,0,,0,,0,,0,,0,,0,,0
1979-08-03 03:03:02.670 ,0,0,,0,,0,,0,,0,,0,,0
1979-08-03 03:03:07.470 ,0,0,,0,,0,,0,,0,,0,,0
1979-08-03 03:03:33.270 ,0,0,,0,,0,,0,,0,,0,,0
1979-08-03 03:03:38.070 ,0,0,,0,,0,,0,,0,,0,,0
1979-08-03 03:03:42.870 ,0,0,,0,,0,,0,,0,,0,,0
1979-08-03 03:03:47.670 ,0,0,,0,,0,,0,,0,,0,,0
1979-08-03 03:03:52.470 ,0,0,,0,,0,,0,,0,,0,,0
1979-08-03 03:03:36.270 ,0,0,,0,,0,,0,,0,,0,,0
1979-08-03 03:03:41.070 ,0,0,,0,,0,,0,,0,,0,,0
1979-08-03 03:03:45.870 ,0,0,,0,,0,,0,,0,,0,,0
1979-08-03 03:03:50.670 ,0,0,,0,,0,,0,,0,,0,,0
1979-08-03 03:03:55.470 ,0,0,,0,,0,,0,,0,,0,,0
1979-08-03 03:03:36.270 ,0,0,,0,,0,,0,,0,,0,,0
1979-08-03 03:03:41.070 ,0,0,,0,3.,4.8,0.,4.8,,0,0.,4.8,0.,4.8
1979-08-03 03:03:45.870 ,0,0,,0,2.,4.8,0.,4.8,,0,0.,4.8,0.,4.8
1979-08-03 03:03:50.670 ,0,0,,0,1.,4.8,0.,4.8,,0,0.,4.8,0.,4.8
1979-08-03 03:03:55.470 ,0,0,,0,0.,4.8,0.,4.8,,0,0.,4.8,0.,4.8
1979-08-03 03:04:00.870 ,6,0,,0,0.,4.8,0.,4.8,,0,0.,4.8,0.,4.8
1979-08-03 03:04:05.670 ,6,0,,0,0.,4.8,0.,4.8,,0,0.,4.8,0.,4.8
1979-08-03 03:04:10.470 ,6,0,,0,2.,4.8,1.,4.8,,0,0.,4.8,0.,4.8
1979-08-03 03:04:15.270 ,6,0,,0,5.,4.8,0.,4.8,,0,0.,4.8,0.,4.8
1979-08-03 03:04:20.070 ,6,0,,0,8.,4.8,1.,4.8,,0,0.,4.8,0.,4.8
1979-08-03 03:04:24.270 ,6,0,,0,1.,4.8,0.,4.8,,0,0.,4.8,0.,4.8
1979-08-03 03:04:29.070 ,6,0,,0,2.,4.8,0.,4.8,,0,0.,4.8,1.,4.8
1979-08-03 03:04:33.870 ,6,0,,0,1.,4.8,0.,4.8,,0,0.,4.8,0.,4.8
1979-08-03 03:04:38.670 ,6,0,,0,0.,4.8,0.,4.8,,0,0.,4.8,0.,4.8
1979-08-03 03:04:43.470 ,6,0,,0,0.,4.8,0.,4.8,,0,0.,4.8,0.,4.8
1979-08-03 03:04:48.270 ,7,0,,0,0.,4.8,0.,4.8,,0,0.,4.8,0.,4.8
1979-08-03 03:04:53.070 ,7,0,,0,0.,4.8,0.,4.8,,0,0.,4.8,0.,4.8
1979-08-03 03:04:57.870 ,7,0,,0,3.,4.8,0.,4.8,,0,0.,4.8,0.,4.8
1979-08-03 03:05:02.670 ,7,0,,0,6.,4.8,0.,4.8,,0,0.,4.8,0.,4.8
1979-08-03 03:05:07.470 ,7,0,,0,9.,4.8,0.,4.8,,0,0.,4.8,0.,4.8
1979-08-03 03:05:12.270 ,7,0,,0,7.,4.8,0.,4.8,,0,0.,4.8,1.,4.8
1979-08-03 03:05:17.070 ,7,0,,0,,0,,0,,0,,0,,0
1979-08-03 03:05:21.870 ,7,0,,0,14.,4.8,0.,4.8,,0,0.,4.8,0.,4.8
1979-08-03 03:05:26.670 ,7,0,,0,0.,4.8,0.,4.8,,0,0.,4.8,0.,4.8
1979-08-03 03:05:31.470 ,7,0,,0,,0,,0,,0,,0,,0
1979-08-03 03:05:36.270 ,0,0,,0,0.,4.8,0.,4.8,,0,0.,4.8,0.,4.8
1979-08-03 03:05:41.070 ,0,0,,0,0.,4.8,0.,4.8,,0,0.,4.8,0.,4.8
1979-08-03 03:05:45.870 ,0,0,,0,2.,4.8,0.,4.8,,0,0.,4.8,0.,4.8
1979-08-03 03:05:50.670 ,0,0,,0,11.,4.8,0.,4.8,,0,0.,4.8,0.,4.8
1979-08-03 03:05:55.470 ,0,0,,0,14.,4.8,0.,4.8,,0,0.,4.8,0.,4.8
1979-08-03 03:06:00.270 ,0,0,,0,12.,4.8,0.,4.8,,0,0.,4.8,0.,4.8
1979-08-03 03:06:05.070 ,0,0,,0,6.,4.8,0.,4.8,,0,0.,4.8,0.,4.8
1979-08-03 03:06:09.870 ,0,0,,0,7.,4.8,0.,4.8,,0,0.,4.8,0.,4.8
1979-08-03 03:06:14.670 ,0,0,,0,0.,4.8,0.,4.8,,0,0.,4.8,0.,4.8
1979-08-03 03:06:19.470 ,0,0,,0,0.,4.8,0.,4.8,,0,0.,4.8,0.,4.8
1979-08-03 03:06:24.270 ,6,0,,0,1.,4.8,0.,4.8,,0,0.,4.8,0.,4.8
1979-08-03 03:06:29.070 ,6,0,,0,0.,4.8,0.,4.8,,0,0.,4.8,0.,4.8
1979-08-03 03:06:33.870 ,6,0,,0,,0,,0,,0,,0,,0
1979-08-03 03:06:38.670 ,6,0,,0,2.,4.8,0.,4.8,,0,0.,4.8,0.,4.8
1979-08-03 03:06:43.470 ,6,0,,0,7.,4.8,0.,4.8,,0,0.,4.8,0.,4.8
1979-08-03 03:06:48.270 ,0,0,,0,4.,4.8,0.,4.8,,0,0.,4.8,1.,4.8
1979-08-03 03:06:53.070 ,0,0,,0,3.,4.8,0.,4.8,,0,0.,4.8,0.,4.8
1979-08-03 03:06:57.870 ,0,0,,0,1.,4.8,0.,4.8,,0,0.,4.8,0.,4.8
1979-08-03 03:07:02.670 ,0,0,,0,0.,4.8,0.,4.8,,0,0.,4.8,0.,4.8
1979-08-03 03:07:07.470 ,0,0,,0,0.,4.8,0.,4.8,,0,0.,4.8,0.,4.8
1979-08-03 03:07:12.270 ,5,0,,0,,0,,0,,0,,0,,0
1979-08-03 03:07:17.070 ,5,0,,0,0.,4.8,0.,4.8,,0,0.,4.8,0.,4.8
1979-08-03 03:07:21.870 ,5,0,,0,0.,4.8,0.,4.8,,0,0.,4.8,0.,4.8
1979-08-03 03:07:26.670 ,5,0,,0,3.,4.8,0.,4.8,,0,0.,4.8,0.,4.8
1979-08-03 03:07:31.470 ,5,0,,0,4.,4.8,0.,4.8,,0,0.,4.8,0.,4.8
1979-08-03 03:07:36.270 ,5,0,,0,,0,,0,,0,,0,,0
1979-08-03 03:07:41.070 ,5,0,,0,5.,4.8,1.,4.8,,0,1.,4.8,0.,4.8
1979-08-03 03:07:45.870 ,5,0,,0,4.,4.8,0.,4.8,,0,0.,4.8,0.,4.8
1979-08-03 03:07:50.670 ,5,0,,0,0.,4.8,0.,4.8,,0,0.,4.8,0.,4.8
1979-08-03 03:07:55.470 ,5,0,,0,,0,,0,,0,,0,,0
1979-08-03 03:08:00.270 ,4,0,,0,,0,,0,,0,,0,,0
1979-08-03 03:08:05.070 ,4,0,,0,0.,4.8,0.,4.8,,0,0.,4.8,0.,4.8
1979-08-03 03:08:09.870 ,4,0,,0,,0,,0,,0,,0,,0
1979-08-03 03:08:14.670 ,4,0,,0,5.,4.8,0.,4.8,,0,0.,4.8,0.,4.8
1979-08-03 03:08:19.470 ,4,0,,0,4.,4.8,0.,4.8,,0,0.,4.8,0.,4.8
1979-08-03 03:08:24.270 ,0,0,,0,4.,4.8,0.,4.8,,0,0.,4.8,0.,4.8
1979-08-03 03:08:29.070 ,0,0,,0,,0,,0,,0,,0,,0
1979-08-03 03:08:33.870 ,0,0,,0,3.,4.8,0.,4.8,,0,0.,4.8,0.,4.8
1979-08-03 03:08:38.670 ,0,0,,0,0.,4.8,0.,4.8,,0,0.,4.8,0.,4.8
1979-08-03 03:08:43.470 ,0,0,,0,,0,,0,,0,,0,,0
1979-08-03 03:08:48.270 ,3,0,,0,,0,,0,,0,,0,,0
1979-08-03 03:08:53.070 ,3,0,,0,0.,4.8,0.,4.8,,0,0.,4.8,0.,4.8
1979-08-03 03:08:57.870 ,3,0,,0,1.,4.8,0.,4.8,,0,0.,4.8,1.,4.8
1979-08-03 03:09:02.670 ,3,0,,0,5.,4.8,0.,4.8,,0,0.,4.8,0.,4.8
1979-08-03 03:09:07.470 ,3,0,,0,0.,4.8,0.,4.8,,0,0.,4.8,0.,4.8
1979-08-03 03:09:12.270 ,0,0,,0,1.,4.8,0.,4.8,,0,0.,4.8,0.,4.8
1979-08-03 03:09:17.070 ,0,0,,0,,0,,0,,0,,0,,0
1979-08-03 03:09:21.870 ,0,0,,0,2.,4.8,0.,4.8,,0,0.,4.8,1.,4.8
1979-08-03 03:09:26.670 ,0,0,,0,0.,4.8,0.,4.8,,0,0.,4.8,0.,4.8
1979-08-03 03:09:31.470 ,0,0,,0,0.,4.8,0.,4.8,,0,0.,4.8,0.,4.8
1979-08-03 03:09:36.270 ,2,0,,0,0.,4.8,0.,4.8,,0,0.,4.8,1.,4.8
1979-08-03 03:09:41.070 ,2,0,,0,,0,,0,,0,,0,,0
1979-08-03 03:09:45.870 ,2,0,,0,1.,4.8,0.,4.8,,0,0.,4.8,0.,4.8
1979-08-03 03:09:50.670 ,2,0,,0,,0,,0,,0,,0,,0
1979-08-03 03:09:55.470 ,2,0,,0,7.,4.8,0.,4.8,,0,0.,4.8,1.,4.8
1979-08-03 03:10:00.270 ,2,0,,0,,0,,0,,0,,0,,0
1979-08-03 03:10:05.070 ,2,0,,0,,0,,0,,0,,0,,0
1979-08-03 03:10:09.870 ,2,0,,0,4.,4.8,0.,4.8,,0,0.,4.8,0.,4.8
1979-08-03 03:10:14.670 ,2,0,,0,0.,4.8,0.,4.8,,0,0.,4.8,0.,4.8
1979-08-03 03:10:19.470 ,2,0,,0,0.,4.8,0.,4.8,,0,0.,4.8,0.,4.8
1979-08-03 03:10:24.270 ,0,0,,0,,0,,0,,0,,0,,0
1979-08-03 03:10:29.070 ,0,0,,0,,0,,0,,0,,0,,0
1979-08-03 03:10:33.870 ,0,0,,0,2.,4.8,0.,4.8,,0,0.,4.8,0.,4.8
1979-08-03 03:10:38.670 ,0,0,,0,6.,4.8,0.,4.8,,0,0.,4.8,0.,4.8
1979-08-03 03:10:43.470 ,0,0,,0,3.,4.8,2.,4.8,,0,0.,4.8,2.,4.8
1979-08-03 03:10:48.270 ,0,0,,0,4.,4.8,0.,4.8,,0,0.,4.8,2.,4.8
1979-08-03 03:10:53.070 ,0,0,,0,7.,4.8,0.,4.8,,0,0.,4.8,2.,4.8
1979-08-03 03:10:57.870 ,0,0,,0,,0,,0,,0,,0,,0
1979-08-03 03:11:02.670 ,0,0,,0,0.,4.8,0.,4.8,,0,0.,4.8,1.,4.8
1979-08-03 03:11:07.470 ,0,0,,0,0.,4.8,0.,4.8,,0,0.,4.8,0.,4.8
1979-08-03 03:11:12.270 ,0,0,,0,0.,4.8,0.,4.8,,0,0.,4.8,0.,4.8
1979-08-03 03:11:17.070 ,0,0,,0,,0,,0,,0,,0,,0
1979-08-03 03:11:21.870 ,0,0,,0,,0,,0,,0,,0,,0
1979-08-03 03:11:26.670 ,0,0,,0,8.,4.8,3.,4.8,,0,0.,4.8,4.,4.8
1979-08-03 03:11:31.470 ,0,0,,0,9.,4.8,1.,4.8,,0,0.,4.8,2.,4.8
1979-08-03 03:11:36.270 ,0,0,,0,6.,4.8,0.,4.8,,0,0.,4.8,3.,4.8
1979-08-03 03:11:41.070 ,0,0,,0,9.,4.8,1.,4.8,,0,0.,4.8,8.,4.8
1979-08-03 03:11:45.870 ,0,0,,0,,0,,0,,0,,0,,0
1979-08-03 03:11:50.670 ,0,0,,0,1.,4.8,0.,4.8,,0,0.,4.8,2.,4.8
1979-08-03 03:11:55.470 ,0,0,,0,0.,4.8,0.,4.8,,0,0.,4.8,3.,4.8
1979-08-03 03:12:00.270 ,0,0,,0,0.,4.8,0.,4.8,,0,0.,4.8,3.,4.8
1979-08-03 03:12:05.070 ,0,0,,0,,0,,0,,0,,0,,0
1979-08-03 03:12:09.870 ,0,0,,0,0.,4.8,0.,4.8,,0,0.,4.8,7.,4.8
1979-08-03 03:12:14.670 ,0,0,,0,6.,4.8,0.,4.8,,0,1.,4.8,5.,4.8
1979-08-03 03:12:19.470 ,0,0,,0,7.,4.8,3.,4.8,,0,0.,4.8,5.,4.8
1979-08-03 03:12:24.270 ,0,0,,0,13.,4.8,0.,4.8,,0,0.,4.8,4.,4.8
1979-08-03 03:12:29.070 ,0,0,,0,,0,,0,,0,,0,,0
1979-08-03 03:12:33.870 ,0,0,,0,7.,4.8,2.,4.8,,0,0.,4.8,2.,4.8
1979-08-03 03:12:38.670 ,0,0,,0,0.,4.8,0.,4.8,,0,0.,4.8,2.,4.8
1979-08-03 03:12:43.470 ,0,0,,0,,0,,0,,0,,0,,0
1979-08-03 03:12:48.270 ,1,0,,0,0.,4.8,0.,4.8,,0,0.,4.8,0.,4.8
1979-08-03 03:12:53.070 ,1,0,,0,0.,4.8,0.,4.8,,0,0.,4.8,4.,4.8
1979-08-03 03:12:57.870 ,1,0,,0,0.,4.8,0.,4.8,,0,0.,4.8,1.,4.8
1979-08-03 03:13:02.670 ,1,0,,0,2.,4.8,0.,4.8,,0,0.,4.8,0.,4.8
1979-08-03 03:13:07.470 ,1,0,,0,5.,4.8,1.,4.8,,0,0.,4.8,0.,4.8
1979-08-03 03:13:12.270 ,0,0,,0,3.,4.8,0.,4.8,,0,0.,4.8,0.,4.8
1979-08-03 03:13:17.070 ,0,0,,0,6.,4.8,1.,4.8,,0,0.,4.8,0.,4.8
1979-08-03 03:13:21.870 ,0,0,,0,4.,4.8,1.,4.8,,0,0.,4.8,4.,4.8
1979-08-03 03:13:26.670 ,0,0,,0,,0,,0,,0,,0,,0
1979-08-03 03:13:31.470 ,0,0,,0,0.,4.8,0.,4.8,,0,0.,4.8,1.,4.8
1979-08-03 03:13:36.270 ,0,0,,0,,0,,0,,0,,0,,0
1979-08-03 03:13:41.070 ,0,0,,0,0.,4.8,0.,4.8,,0,0.,4.8,1.,4.8
1979-08-03 03:13:45.870 ,0,0,,0,3.,4.8,0.,4.8,,0,0.,4.8,1.,4.8
1979-08-03 03:13:50.670 ,0,0,,0,4.,4.8,0.,4.8,,0,0.,4.8,0.,4.8
1979-08-03 03:13:55.470 ,0,0,,0,6.,4.8,2.,4.8,,0,0.,4.8,1.,4.8
1979-08-03 03:14:00.270 ,0,0,,0,2.,4.8,1.,4.8,,0,0.,4.8,1.,4.8
1979-08-03 03:14:05.070 ,0,0,,0,3.,4.8,0.,4.8,,0,0.,4.8,1.,4.8
1979-08-03 03:14:09.870 ,0,0,,0,3.,4.8,0.,4.8,,0,0.,4.8,1.,4.8
1979-08-03 03:14:14.670 ,0,0,,0,0.,4.8,0.,4.8,,0,0.,4.8,0.,4.8
1979-08-03 03:14:19.470 ,0,0,,0,0.,4.8,0.,4.8,,0,0.,4.8,0.,4.8
1979-08-03 03:14:24.270 ,3,0,,0,0.,4.8,0.,4.8,,0,0.,4.8,0.,4.8
1979-08-03 03:14:29.070 ,3,0,,0,0.,4.8,0.,4.8,,0,0.,4.8,0.,4.8
1979-08-03 03:14:33.870 ,3,0,,0,1.,4.8,0.,4.8,,0,0.,4.8,0.,4.8
1979-08-03 03:14:38.670 ,3,0,,0,2.,4.8,0.,4.8,,0,0.,4.8,0.,4.8
1979-08-03 03:14:43.470 ,3,0,,0,5.,4.8,0.,4.8,,0,0.,4.8,2.,4.8
1979-08-03 03:14:48.270 ,3,0,,0,1.,4.8,0.,4.8,,0,0.,4.8,0.,4.8
1979-08-03 03:14:53.070 ,3,0,,0,3.,4.8,0.,4.8,,0,0.,4.8,0.,4.8
1979-08-03 03:14:57.870 ,3,0,,0,6.,4.8,0.,4.8,,0,0.,4.8,1.,4.8
1979-08-03 03:15:02.670 ,3,0,,0,0.,4.8,0.,4.8,,0,0.,4.8,0.,4.8
1979-08-03 03:15:07.470 ,3,0,,0,0.,4.8,0.,4.8,,0,0.,4.8,1.,4.8
1979-08-03 03:15:12.270 ,0,0,,0,0.,4.8,0.,4.8,,0,0.,4.8,0.,4.8
1979-08-03 03:15:17.070 ,0,0,,0,,0,,0,,0,,0,,0
1979-08-03 03:15:21.870 ,0,0,,0,,0,,0,,0,,0,,0
1979-08-03 03:15:26.670 ,0,0,,0,1.,4.8,0.,4.8,,0,0.,4.8,0.,4.8
1979-08-03 03:15:31.470 ,0,0,,0,3.,4.8,0.,4.8,,0,0.,4.8,0.,4.8
1979-08-03 03:15:36.270 ,0,0,,0,2.,4.8,0.,4.8,,0,0.,4.8,0.,4.8
1979-08-03 03:15:41.070 ,0,0,,0,2.,4.8,0.,4.8,,0,0.,4.8,0.,4.8
1979-08-03 03:15:45.870 ,0,0,,0,3.,4.8,0.,4.8,,0,0.,4.8,0.,4.8
1979-08-03 03:15:50.670 ,0,0,,0,0.,4.8,0.,4.8,,0,0.,4.8,0.,4.8
1979-08-03 03:15:55.470 ,0,0,,0,0.,4.8,0.,4.8,,0,0.,4.8,0.,4.8
1979-08-03 03:16:00.270 ,5,0,,0,0.,4.8,0.,4.8,,0,0.,4.8,0.,4.8
1979-08-03 03:16:05.070 ,5,0,,0,0.,4.8,0.,4.8,,0,0.,4.8,0.,4.8
1979-08-03 03:16:09.870 ,5,0,,0,1.,4.8,0.,4.8,,0,0.,4.8,0.,4.8
1979-08-03 03:16:14.670 ,5,0,,0,,0,,0,,0,,0,,0
1979-08-03 03:16:19.470 ,5,0,,0,5.,4.8,0.,4.8,,0,0.,4.8,0.,4.8
1979-08-03 03:16:24.270 ,0,0,,0,1.,4.8,0.,4.8,,0,0.,4.8,0.,4.8
1979-08-03 03:16:29.070 ,0,0,,0,2.,4.8,0.,4.8,,0,0.,4.8,0.,4.8
1979-08-03 03:16:33.870 ,0,0,,0,2.,4.8,0.,4.8,,0,0.,4.8,0.,4.8
1979-08-03 03:16:38.670 ,0,0,,0,0.,4.8,0.,4.8,,0,0.,4.8,0.,4.8
1979-08-03 03:16:43.470 ,0,0,,0,0.,4.8,0.,4.8,,0,0.,4.8,0.,4.8
1979-08-03 03:16:48.270 ,0,0,,0,0.,4.8,0.,4.8,,0,0.,4.8,0.,4.8
1979-08-03 03:16:53.070 ,0,0,,0,0.,4.8,0.,4.8,,0,0.,4.8,0.,4.8
1979-08-03 03:16:57.870 ,0,0,,0,,0,,0,,0,,0,,0
1979-08-03 03:17:02.670 ,0,0,,0,4.,4.8,1.,4.8,,0,0.,4.8,0.,4.8
1979-08-03 03:17:07.470 ,0,0,,0,4.,4.8,0.,4.8,,0,0.,4.8,0.,4.8
1979-08-03 03:17:12.270 ,0,0,,0,,0,,0,,0,,0,,0
1979-08-03 03:17:17.070 ,0,0,,0,1.,4.8,0.,4.8,,0,0.,4.8,0.,4.8
1979-08-03 03:17:21.870 ,0,0,,0,4.,4.8,0.,4.8,,0,0.,4.8,0.,4.8
1979-08-03 03:17:26.670 ,0,0,,0,0.,4.8,0.,4.8,,0,0.,4.8,2.,4.8
1979-08-03 03:17:31.470 ,0,0,,0,0.,4.8,0.,4.8,,0,0.,4.8,0.,4.8
1979-08-03 03:17:36.270 ,7,0,,0,0.,4.8,0.,4.8,,0,0.,4.8,0.,4.8
1979-08-03 03:17:41.070 ,7,0,,0,0.,4.8,0.,4.8,,0,0.,4.8,1.,4.8
1979-08-03 03:17:45.870 ,7,0,,0,2.,4.8,0.,4.8,,0,0.,4.8,0.,4.8
1979-08-03 03:17:50.670 ,7,0,,0,,0,,0,,0,,0,,0
1979-08-03 03:17:55.470 ,7,0,,0,12.,4.8,0.,4.8,,0,0.,4.8,0.,4.8
1979-08-03 03:18:00.270 ,0,0,,0,,0,,0,,0,,0,,0
1979-08-03 03:18:05.070 ,0,0,,0,12.,4.8,0.,4.8,,0,0.,4.8,0.,4.8
1979-08-03 03:18:09.870 ,0,0,,0,,0,,0,,0,,0,,0
1979-08-03 03:18:14.670 ,0,0,,0,0.,4.8,0.,4.8,,0,0.,4.8,0.,4.8
1979-08-03 03:18:19.470 ,0,0,,0,0.,4.8,0.,4.8,,0,0.,4.8,0.,4.8
1979-08-03 03:18:24.270 ,0,0,,0,0.,4.8,0.,4.8,,0,0.,4.8,0.,4.8
1979-08-03 03:18:29.070 ,0,0,,0,0.,4.8,0.,4.8,,0,0.,4.8,0.,4.8
1979-08-03 03:18:33.870 ,0,0,,0,1.,4.8,0.,4.8,,0,0.,4.8,0.,4.8
1979-08-03 03:18:38.670 ,0,0,,0,7.,4.8,0.,4.8,,0,0.,4.8,0.,4.8
1979-08-03 03:18:43.470 ,0,0,,0,,0,,0,,0,,0,,0
1979-08-03 03:18:48.270 ,0,0,,0,15.,4.8,0.,4.8,,0,0.,4.8,0.,4.8
1979-08-03 03:18:53.070 ,0,0,,0,,0,,0,,0,,0,,0
1979-08-03 03:18:57.870 ,0,0,,0,,0,,0,,0,,0,,0
1979-08-03 03:19:02.670 ,0,0,,0,,0,,0,,0,,0,,0
1979-08-03 03:19:07.470 ,0,0,,0,0.,4.8,0.,4.8,,0,0.,4.8,0.,4.8
1979-08-03 03:19:12.270 ,0,0,,0,0.,4.8,0.,4.8,,0,0.,4.8,0.,4.8
1979-08-03 03:19:17.070 ,0,0,,0,1.,4.8,0.,4.8,,0,0.,4.8,0.,4.8
1979-08-03 03:19:21.870 ,0,0,,0,1.,4.8,0.,4.8,,0,0.,4.8,1.,4.8
1979-08-03 03:19:26.670 ,0,0,,0,3.,4.8,0.,4.8,,0,0.,4.8,0.,4.8
1979-08-03 03:19:31.470 ,0,0,,0,6.,4.8,1.,4.8,,0,0.,4.8,3.,4.8
1979-08-03 03:19:36.270 ,0,0,,0,6.,4.8,0.,4.8,,0,0.,4.8,1.,4.8
1979-08-03 03:19:41.070 ,0,0,,0,2.,4.8,0.,4.8,,0,0.,4.8,2.,4.8
1979-08-03 03:19:45.870 ,0,0,,0,3.,4.8,0.,4.8,,0,0.,4.8,1.,4.8
1979-08-03 03:19:50.670 ,0,0,,0,0.,4.8,0.,4.8,,0,0.,4.8,0.,4.8
1979-08-03 03:19:55.470 ,0,0,,0,1.,4.8,0.,4.8,,0,0.,4.8,0.,4.8
1979-08-03 03:20:00.270 ,5,0,,0,0.,4.8,0.,4.8,,0,0.,4.8,1.,4.8
1979-08-03 03:20:05.070 ,5,0,,0,0.,4.8,0.,4.8,,0,0.,4.8,0.,4.8
1979-08-03 03:20:09.870 ,5,0,,0,0.,4.8,0.,4.8,,0,0.,4.8,0.,4.8
1979-08-03 03:20:14.670 ,5,0,,0,6.,4.8,1.,4.8,,0,0.,4.8,0.,4.8
1979-08-03 03:20:19.470 ,5,0,,0,4.,4.8,0.,4.8,,0,0.,4.8,0.,4.8
1979-08-03 03:20:24.270 ,7,0,,0,,0,,0,,0,,0,,0
1979-08-03 03:20:29.070 ,7,0,,0,2.,4.8,0.,4.8,,0,0.,4.8,0.,4.8
1979-08-03 03:20:33.870 ,7,0,,0,2.,4.8,0.,4.8,,0,0.,4.8,0.,4.8
1979-08-03 03:20:38.670 ,7,0,,0,0.,4.8,0.,4.8,,0,0.,4.8,1.,4.8
1979-08-03 03:20:43.470 ,7,0,,0,0.,4.8,0.,4.8,,0,0.,4.8,0.,4.8
1979-08-03 03:20:49.470 ,4,0,,0,,0,,0,,0,,0,,0
1979-08-03 03:20:54.270 ,4,0,,0,0.,4.8,0.,4.8,,0,0.,4.8,0.,4.8
1979-08-03 03:20:59.070 ,4,0,,0,0.,4.8,0.,4.8,,0,0.,4.8,0.,4.8
1979-08-03 03:21:03.870 ,4,0,,0,1.,4.8,0.,4.8,,0,0.,4.8,0.,4.8
1979-08-03 03:21:08.670 ,4,0,,0,5.,4.8,0.,4.8,,0,0.,4.8,1.,4.8
1979-08-03 03:21:12.270 ,4,0,,0,2.,4.8,0.,4.8,,0,0.,4.8,0.,4.8
1979-08-03 03:21:17.070 ,4,0,,0,3.,4.8,0.,4.8,,0,0.,4.8,0.,4.8
1979-08-03 03:21:21.870 ,4,0,,0,1.,4.8,0.,4.8,,0,0.,4.8,0.,4.8
1979-08-03 03:21:26.670 ,4,0,,0,,0,,0,,0,,0,,0
1979-08-03 03:21:31.470 ,4,0,,0,0.,4.8,0.,4.8,,0,0.,4.8,0.,4.8
1979-08-03 03:21:36.270 ,3,0,,0,0.,4.8,0.,4.8,,0,0.,4.8,0.,4.8
1979-08-03 03:21:41.070 ,3,0,,0,0.,4.8,0.,4.8,,0,0.,4.8,0.,4.8
1979-08-03 03:21:45.870 ,3,0,,0,1.,4.8,0.,4.8,,0,0.,4.8,0.,4.8
1979-08-03 03:21:50.670 ,3,0,,0,,0,,0,,0,,0,,0
1979-08-03 03:21:55.470 ,3,0,,0,2.,4.8,0.,4.8,,0,0.,4.8,0.,4.8
1979-08-03 03:22:00.270 ,3,0,,0,,0,,0,,0,,0,,0
1979-08-03 03:22:05.070 ,3,0,,0,0.,4.8,0.,4.8,,0,0.,4.8,0.,4.8
1979-08-03 03:22:09.870 ,3,0,,0,1.,4.8,0.,4.8,,0,0.,4.8,0.,4.8
1979-08-03 03:22:14.670 ,3,0,,0,0.,4.8,0.,4.8,,0,0.,4.8,0.,4.8
1979-08-03 03:22:19.470 ,3,0,,0,0.,4.8,0.,4.8,,0,0.,4.8,0.,4.8
1979-08-03 03:22:24.270 ,2,0,,0,0.,4.8,0.,4.8,,0,0.,4.8,1.,4.8
1979-08-03 03:22:29.070 ,2,0,,0,0.,4.8,0.,4.8,,0,0.,4.8,0.,4.8
1979-08-03 03:22:33.870 ,2,0,,0,,0,,0,,0,,0,,0
1979-08-03 03:22:38.670 ,2,0,,0,4.,4.8,1.,4.8,,0,0.,4.8,0.,4.8
1979-08-03 03:22:43.470 ,2,0,,0,0.,4.8,0.,4.8,,0,0.,4.8,1.,4.8
1979-08-03 03:22:48.270 ,0,0,,0,4.,4.8,0.,4.8,,0,0.,4.8,1.,4.8
1979-08-03 03:22:53.070 ,0,0,,0,,0,,0,,0,,0,,0
1979-08-03 03:22:57.870 ,0,0,,0,7.,4.8,1.,4.8,,0,0.,4.8,2.,4.8
1979-08-03 03:23:02.670 ,0,0,,0,,0,,0,,0,,0,,0
1979-08-03 03:23:07.470 ,0,0,,0,0.,4.8,0.,4.8,,0,0.,4.8,0.,4.8
1979-08-03 03:23:13.470 ,0,0,,0,0.,4.8,0.,4.8,,0,0.,4.8,0.,4.8
1979-08-03 03:23:18.270 ,0,0,,0,,0,,0,,0,,0,,0
1979-08-03 03:23:23.070 ,0,0,,0,0.,4.8,0.,4.8,,0,0.,4.8,1.,4.8
1979-08-03 03:23:27.870 ,0,0,,0,,0,,0,,0,,0,,0
1979-08-03 03:23:32.670 ,0,0,,0,2.,4.8,0.,4.8,,0,0.,4.8,0.,4.8
1979-08-03 03:23:36.270 ,0,0,,0,,0,,0,,0,,0,,0
1979-08-03 03:23:41.070 ,0,0,,0,6.,4.8,0.,4.8,,0,0.,4.8,0.,4.8
1979-08-03 03:23:45.870 ,0,0,,0,1.,4.8,0.,4.8,,0,0.,4.8,1.,4.8
1979-08-03 03:23:50.670 ,0,0,,0,0.,4.8,0.,4.8,,0,0.,4.8,0.,4.8
1979-08-03 03:23:55.470 ,0,0,,0,0.,4.8,0.,4.8,,0,0.,4.8,2.,4.8
1979-08-03 03:24:00.270 ,0,0,,0,0.,4.8,0.,4.8,,0,0.,4.8,1.,4.8
1979-08-03 03:24:05.070 ,0,0,,0,0.,4.8,0.,4.8,,0,0.,4.8,1.,4.8
1979-08-03 03:24:09.870 ,0,0,,0,,0,,0,,0,,0,,0
1979-08-03 03:24:14.670 ,0,0,,0,10.,4.8,2.,4.8,,0,0.,4.8,2.,4.8
1979-08-03 03:24:19.470 ,0,0,,0,,0,,0,,0,,0,,0
1979-08-03 03:24:24.270 ,0,0,,0,,0,,0,,0,,0,,0
1979-08-03 03:24:29.070 ,0,0,,0,7.,4.8,0.,4.8,,0,0.,4.8,4.,4.8
1979-08-03 03:24:33.870 ,0,0,,0,,0,,0,,0,,0,,0
1979-08-03 03:24:38.670 ,0,0,,0,,0,,0,,0,,0,,0
1979-08-03 03:24:43.470 ,0,0,,0,0.,4.8,0.,4.8,,0,0.,4.8,2.,4.8
1979-08-03 03:24:48.270 ,0,0,,0,0.,4.8,0.,4.8,,0,0.,4.8,5.,4.8
1979-08-03 03:24:53.070 ,0,0,,0,0.,4.8,0.,4.8,,0,0.,4.8,2.,4.8
1979-08-03 03:24:57.870 ,0,0,,0,0.,4.8,0.,4.8,,0,0.,4.8,1.,4.8
1979-08-03 03:25:02.670 ,0,0,,0,12.,4.8,2.,4.8,,0,0.,4.8,4.,4.8
1979-08-03 03:25:07.470 ,0,0,,0,9.,4.8,0.,4.8,,0,0.,4.8,3.,4.8
1979-08-03 03:25:12.270 ,0,0,,0,14.,4.8,4.,4.8,,0,0.,4.8,4.,4.8
1979-08-03 03:25:17.070 ,0,0,,0,,0,,0,,0,,0,,0
1979-08-03 03:25:21.870 ,0,0,,0,12.,4.8,3.,4.8,,0,1.,4.8,2.,4.8
1979-08-03 03:25:26.670 ,0,0,,0,0.,4.8,0.,4.8,,0,0.,4.8,4.,4.8
1979-08-03 03:25:31.470 ,0,0,,0,0.,4.8,0.,4.8,,0,0.,4.8,4.,4.8
1979-08-03 03:25:37.470 ,1,0,,0,0.,4.8,0.,4.8,,0,0.,4.8,3.,4.8
1979-08-03 03:25:42.270 ,1,0,,0,0.,4.8,0.,4.8,,0,0.,4.8,3.,4.8
1979-08-03 03:25:47.070 ,1,0,,0,0.,4.8,0.,4.8,,0,0.,4.8,3.,4.8
1979-08-03 03:25:51.870 ,1,0,,0,,0,,0,,0,,0,,0
1979-08-03 03:25:56.670 ,1,0,,0,5.,4.8,0.,4.8,,0,0.,4.8,2.,4.8
1979-08-03 03:26:00.270 ,1,0,,0,3.,4.8,0.,4.8,,0,0.,4.8,2.,4.8
1979-08-03 03:26:05.070 ,1,0,,0,4.,4.8,0.,4.8,,0,0.,4.8,1.,4.8
1979-08-03 03:26:09.870 ,1,0,,0,3.,4.8,0.,4.8,,0,0.,4.8,2.,4.8
1979-08-03 03:26:14.670 ,1,0,,0,0.,4.8,0.,4.8,,0,0.,4.8,0.,4.8
1979-08-03 03:26:19.470 ,1,0,,0,0.,4.8,0.,4.8,,0,0.,4.8,0.,4.8
1979-08-03 03:26:24.270 ,2,0,,0,0.,4.8,0.,4.8,,0,0.,4.8,0.,4.8
1979-08-03 03:26:29.070 ,2,0,,0,0.,4.8,0.,4.8,,0,0.,4.8,0.,4.8
1979-08-03 03:26:33.870 ,2,0,,0,1.,4.8,0.,4.8,,0,0.,4.8,1.,4.8
1979-08-03 03:26:38.670 ,2,0,,0,1.,4.8,0.,4.8,,0,0.,4.8,0.,4.8
1979-08-03 03:26:43.470 ,2,0,,0,,0,,0,,0,,0,,0
1979-08-03 03:26:48.270 ,2,0,,0,,0,,0,,0,,0,,0
1979-08-03 03:26:53.070 ,2,0,,0,3.,4.8,0.,4.8,,0,0.,4.8,1.,4.8
1979-08-03 03:26:57.870 ,2,0,,0,3.,4.8,0.,4.8,,0,0.,4.8,0.,4.8
1979-08-03 03:27:02.670 ,2,0,,0,0.,4.8,0.,4.8,,0,0.,4.8,1.,4.8
1979-08-03 03:27:07.470 ,2,0,,0,0.,4.8,0.,4.8,,0,0.,4.8,0.,4.8
1979-08-03 03:27:12.270 ,3,0,,0,,0,,0,,0,,0,,0
1979-08-03 03:27:17.070 ,3,0,,0,,0,,0,,0,,0,,0
1979-08-03 03:27:21.870 ,3,0,,0,0.,4.8,0.,4.8,,0,0.,4.8,0.,4.8
1979-08-03 03:27:26.670 ,3,0,,0,,0,,0,,0,,0,,0
1979-08-03 03:27:31.470 ,3,0,,0,3.,4.8,0.,4.8,,0,0.,4.8,0.,4.8
1979-08-03 03:27:36.270 ,3,0,,0,2.,4.8,0.,4.8,,0,0.,4.8,1.,4.8
1979-08-03 03:27:41.070 ,3,0,,0,2.,4.8,0.,4.8,,0,0.,4.8,0.,4.8
1979-08-03 03:27:45.870 ,3,0,,0,2.,4.8,0.,4.8,,0,0.,4.8,0.,4.8
1979-08-03 03:27:50.670 ,3,0,,0,1.,4.8,0.,4.8,,0,0.,4.8,1.,4.8
1979-08-03 03:27:55.470 ,3,0,,0,0.,4.8,0.,4.8,,0,0.,4.8,0.,4.8
1979-08-03 03:28:00.270 ,0,0,,0,0.,4.8,0.,4.8,,0,0.,4.8,1.,4.8
1979-08-03 03:28:05.070 ,0,0,,0,0.,4.8,0.,4.8,,0,0.,4.8,1.,4.8
1979-08-03 03:28:09.870 ,0,0,,0,0.,4.8,0.,4.8,,0,0.,4.8,0.,4.8
1979-08-03 03:28:14.670 ,0,0,,0,3.,4.8,0.,4.8,,0,0.,4.8,0.,4.8
1979-08-03 03:28:19.470 ,0,0,,0,1.,4.8,0.,4.8,,0,0.,4.8,0.,4.8
1979-08-03 03:28:24.270 ,0,0,,0,3.,4.8,0.,4.8,,0,0.,4.8,0.,4.8
1979-08-03 03:28:29.070 ,0,0,,0,3.,4.8,0.,4.8,,0,0.,4.8,0.,4.8
1979-08-03 03:28:33.870 ,0,0,,0,3.,4.8,0.,4.8,,0,0.,4.8,0.,4.8
1979-08-03 03:28:38.670 ,0,0,,0,,0,,0,,0,,0,,0
1979-08-03 03:28:43.470 ,0,0,,0,0.,4.8,0.,4.8,,0,0.,4.8,0.,4.8
1979-08-03 03:28:48.270 ,5,0,,0,0.,4.8,0.,4.8,,0,0.,4.8,1.,4.8
1979-08-03 03:28:53.070 ,5,0,,0,0.,4.8,0.,4.8,,0,0.,4.8,0.,4.8
1979-08-03 03:28:57.870 ,5,0,,0,0.,4.8,0.,4.8,,0,0.,4.8,0.,4.8
1979-08-03 03:29:02.670 ,5,0,,0,4.,4.8,0.,4.8,,0,0.,4.8,0.,4.8
1979-08-03 03:29:07.470 ,5,0,,0,2.,4.8,0.,4.8,,0,0.,4.8,0.,4.8
1979-08-03 03:29:12.270 ,5,0,,0,4.,4.8,0.,4.8,,0,0.,4.8,0.,4.8
1979-08-03 03:29:17.070 ,5,0,,0,2.,4.8,0.,4.8,,0,0.,4.8,0.,4.8
1979-08-03 03:29:21.870 ,5,0,,0,0.,4.8,0.,4.8,,0,0.,4.8,0.,4.8
1979-08-03 03:29:26.670 ,5,0,,0,0.,4.8,0.,4.8,,0,0.,4.8,0.,4.8
1979-08-03 03:29:31.470 ,5,0,,0,0.,4.8,0.,4.8,,0,0.,4.8,0.,4.8
1979-08-03 03:29:36.270 ,6,0,,0,0.,4.8,0.,4.8,,0,0.,4.8,0.,4.8
1979-08-03 03:29:41.070 ,6,0,,0,0.,4.8,0.,4.8,,0,0.,4.8,0.,4.8
1979-08-03 03:29:45.870 ,6,0,,0,1.,4.8,0.,4.8,,0,0.,4.8,0.,4.8
1979-08-03 03:29:50.670 ,6,0,,0,5.,4.8,0.,4.8,,0,1.,4.8,0.,4.8
1979-08-03 03:29:55.470 ,6,0,,0,3.,4.8,0.,4.8,,0,0.,4.8,0.,4.8
1979-08-03 03:30:00.270 ,6,0,,0,10.,4.8,1.,4.8,,0,0.,4.8,0.,4.8
1979-08-03 03:30:05.070 ,6,0,,0,,0,,0,,0,,0,,0
1979-08-03 03:30:09.870 ,6,0,,0,1.,4.8,0.,4.8,,0,0.,4.8,1.,4.8
1979-08-03 03:30:14.670 ,6,0,,0,0.,4.8,0.,4.8,,0,0.,4.8,2.,4.8
1979-08-03 03:30:19.470 ,6,0,,0,0.,4.8,0.,4.8,,0,0.,4.8,2.,4.8
1979-08-03 03:30:24.270 ,0,0,,0,0.,4.8,0.,4.8,,0,0.,4.8,1.,4.8
1979-08-03 03:30:29.070 ,0,0,,0,,0,,0,,0,,0,,0
1979-08-03 03:30:33.870 ,0,0,,0,0.,4.8,0.,4.8,,0,0.,4.8,0.,4.8
1979-08-03 03:30:38.670 ,0,0,,0,11.,4.8,0.,4.8,,0,0.,4.8,0.,4.8
1979-08-03 03:30:43.470 ,0,0,,0,8.,4.8,0.,4.8,,0,0.,4.8,0.,4.8
1979-08-03 03:30:48.270 ,7,0,,0,8.,4.8,0.,4.8,,0,0.,4.8,0.,4.8
1979-08-03 03:30:53.070 ,7,0,,0,8.,4.8,0.,4.8,,0,0.,4.8,0.,4.8
1979-08-03 03:30:57.870 ,7,0,,0,5.,4.8,0.,4.8,,0,0.,4.8,0.,4.8
1979-08-03 03:31:02.670 ,7,0,,0,0.,4.8,0.,4.8,,0,0.,4.8,0.,4.8
1979-08-03 03:31:07.470 ,7,0,,0,0.,4.8,0.,4.8,,0,0.,4.8,0.,4.8
1979-08-03 03:31:12.270 ,3,1,,0,0.,4.8,0.,4.8,,0,0.,4.8,1.,4.8
1979-08-03 03:31:17.070 ,3,1,,0,0.,4.8,0.,4.8,,0,0.,4.8,0.,4.8
1979-08-03 03:31:21.870 ,3,1,,0,0.,4.8,0.,4.8,,0,0.,4.8,0.,4.8
1979-08-03 03:31:26.670 ,3,1,,0,1.,4.8,0.,4.8,,0,0.,4.8,0.,4.8
1979-08-03 03:31:31.470 ,3,1,,0,5.,4.8,0.,4.8,,0,0.,4.8,1.,4.8
1979-08-03 03:31:36.270 ,0,0,,0,4.,4.8,0.,4.8,,0,0.,4.8,1.,4.8